Location: Boiro
(42.6475°N, 8.8834°W)
Time: 03:16:57
(UTC+02:00)

TABLETSAT AURORA - Visible Passes

Search period start: 01 July 2022 00:00
Search period end: 11 July 2022 00:00
Orbit: 566 x 598 km, 98.1° (Epoch: 30 June)

Date Brightness Start Highest point End Pass type
(mag) Time Alt. Az. Time Alt. Az. Time Alt. Az.
01 Jul ? 06:03:57 10° ENE 06:05:22 11° E 06:06:46 10° ESE visible
02 Jul ? 06:08:59 10° ENE 06:11:01 13° E 06:13:03 10° ESE visible
03 Jul ? 06:14:12 10° NE 06:16:41 15° E 06:19:09 10° SE visible
04 Jul ? 06:19:30 10° NE 06:22:19 17° E 06:25:08 10° SE visible
05 Jul ? 06:24:52 10° NE 06:27:58 20° E 06:31:04 10° SE visible
